Starlink 1645

operational
NORAD ID: 47622 Int'l Des: 2021-012 Owner: SPXS Country: US Constellation: starlink
LEOCIRCULARSTARLINK_TYPE

关于 Starlink 1645

正在加载描述...

实时位置

正在加载3D地球...

即将过境

高度历史

Altitude vs Time

uPlot chart will show altitude changes over time

两行轨道根数

1 47622U 21012C 25349.88867307 .00026352 00000-0 52653-3 0 9999
2 47622 53.0512 73.4106 0005709 274.2517 85.7837 15.46640344267559
Epoch: Dec 15, 2025 • Age: 13 hours

当前状态

高度 434.2 km
速度 7.65 km/s
星下点 -32.04°S, 33.01°E
发射日期 Feb 16, 2021
运行时间 4.8 years
类型 internet

技术详情

分类 Payload
质量 260.00 kg
干质量 248.00 kg
总质量 260.00 kg
长度 0.20 m
直径 2.80 m
跨度 9.00 m
形状 Box + pan
制造商 SPXS
平台类型 Starlink
阶段状态 In Orbit
所有者/国家 SPXS/US

大型星座

Loading constellations...